Beatrice, NE

2:38 PM CST on February 20, 2017 (GMT -0600)
Beatrice Municipal

Weather History for KBIE - April, 2014

Change the Weather History Date:

Friday, April 11, 2014

  Actual Average Record
Temperature  
Mean Temperature 58 °F -  
Max Temperature 76 °F 70 °F 85 °F (1968)
Min Temperature 39 °F 42 °F 24 °F (1997)
Degree Days  
Heating Degree Days 8    
Growing Degree Days 8 (Base 50)    
Moisture  
Dew Point 29 °F    
Average Humidity 35    
Maximum Humidity 61    
Minimum Humidity 18    
Precipitation  
Precipitation 0.00 in - - ()
Sea Level Pressure  
Sea Level Pressure 29.97 in    
Wind  
Wind Speed 5 mph (South)    
Max Wind Speed 13 mph    
Max Gust Speed 22 mph    
Visibility 9 miles    
Events      
Averages and records for this station are not official NWS values.
T = Trace of Precipitation, MM = Missing Value Source: NWS Daily Summary

Daily Weather History Graph

Daily Weather History Graph

Search for Another Location

Airport or City:

Trip Planner

Search our weather history database for the weather conditions in past years. The results will help you decide how hot, cold, wet, or windy it might be!

Date:

Astronomy

Apr. 11, 2014 Rise Set
Actual Time 6:54 AM CDT 8:01 PM CDT
Civil Twilight 6:26 AM CDT 8:29 PM CDT
Nautical Twilight 5:53 AM CDT 9:03 PM CDT
Astronomical Twilight 5:18 AM CDT 9:38 PM CDT
Moon 4:43 PM CDT (4/11) 4:51 AM CDT (4/11)
Length of Visible Light 14h 02m
Length of Day
13h 06m
Waxing Gibbous, 87% of the Moon is Illuminated
Apr 11
Waxing Gibbous
Apr 15
Full
Apr 22
Last Quarter
Apr 29
New
May 6
First Quarter

Hourly Weather History & Observations

Time (CDT) Temp. Windchill Dew Point Humidity Pressure Visibility Wind Dir Wind Speed Gust Speed Precip Events Conditions
12:15 AM 43.7 °F - 21.6 °F 41% 30.02 in 10.0 mi Calm Calm - N/A   Clear
12:35 AM 42.4 °F - 22.5 °F 45% 30.01 in 10.0 mi Calm Calm - N/A   Clear
12:55 AM 41.7 °F - 23.0 °F 47% 30.01 in 10.0 mi Calm Calm - N/A   Clear
1:15 AM 43.9 °F - 25.3 °F 48% 30.01 in 10.0 mi Calm Calm - N/A   Scattered Clouds
1:35 AM 42.4 °F 40.7 °F 28.2 °F 57% 30.03 in 10.0 mi WSW 3.5 mph - N/A   Mostly Cloudy
1:55 AM 43.9 °F 42.3 °F 29.8 °F 58% 30.04 in 10.0 mi West 3.5 mph - N/A   Overcast
2:15 AM 44.8 °F 43.3 °F 28.8 °F 53% 30.06 in 10.0 mi NNW 3.5 mph - N/A   Overcast
2:35 AM 45.5 °F - 29.8 °F 54% 30.06 in 10.0 mi Calm Calm - N/A   Overcast
2:55 AM 45.3 °F 43.0 °F 30.2 °F 56% 30.03 in 10.0 mi South 4.6 mph - N/A   Mostly Cloudy
3:15 AM 45.0 °F 43.5 °F 28.4 °F 52% 30.03 in 10.0 mi SSW 3.5 mph - N/A   Mostly Cloudy
3:35 AM 45.7 °F 44.4 °F 27.3 °F 49% 30.01 in 10.0 mi SSE 3.5 mph - N/A   Scattered Clouds
3:55 AM 44.8 °F - 27.9 °F 52% 30.01 in 10.0 mi Calm Calm - N/A   Clear
4:15 AM 42.6 °F 40.9 °F 30.0 °F 61% 30.01 in 10.0 mi ENE 3.5 mph - N/A   Clear
4:35 AM 43.3 °F 40.7 °F 28.9 °F 57% 30.00 in 10.0 mi SE 4.6 mph - N/A   Clear
4:55 AM 44.4 °F 42.0 °F 27.5 °F 52% 30.00 in 10.0 mi East 4.6 mph - N/A   Clear
5:15 AM 44.1 °F 41.5 °F 26.8 °F 51% 30.01 in 10.0 mi East 4.6 mph - N/A   Clear
5:35 AM 43.7 °F 42.1 °F 26.2 °F 50% 30.01 in 10.0 mi ESE 3.5 mph - N/A   Clear
5:55 AM 43.5 °F 41.9 °F 26.1 °F 50% 30.01 in 10.0 mi East 3.5 mph - N/A   Clear
6:15 AM 43.2 °F - 25.7 °F 50% 30.01 in 10.0 mi Calm Calm - N/A   Clear
6:35 AM 43.2 °F - 25.3 °F 49% 30.02 in 10.0 mi Calm Calm - N/A   Clear
6:55 AM 41.7 °F 39.8 °F 26.8 °F 55% 30.02 in 10.0 mi SSE 3.5 mph - N/A   Clear
7:15 AM 39.6 °F - 27.1 °F 61% 30.03 in 10.0 mi Calm Calm - N/A   Clear
7:35 AM 40.6 °F - 26.8 °F 58% 30.03 in 10.0 mi Calm Calm - N/A   Clear
7:55 AM 41.9 °F - 27.9 °F 58% 30.04 in 10.0 mi Calm Calm - N/A   Clear
8:15 AM 44.8 °F - 28.4 °F 53% 30.05 in 10.0 mi Calm Calm - N/A   Clear
8:35 AM 48.2 °F - 28.9 °F 47% 30.05 in 10.0 mi Calm Calm - N/A   Clear
8:55 AM 51.8 °F - 28.4 °F 41% 30.05 in 10.0 mi South 3.5 mph - N/A   Clear
9:15 AM 53.2 °F - 29.1 °F 40% 30.05 in 10.0 mi SSW 5.8 mph - N/A   Clear
9:35 AM 58.8 °F - 27.7 °F 31% 30.06 in 10.0 mi SSW 11.5 mph - N/A   Clear
9:55 AM 60.8 °F - 27.7 °F 28% 30.06 in 10.0 mi SW 9.2 mph - N/A   Clear
10:15 AM 62.6 °F - 24.3 °F 23% 30.06 in 10.0 mi SSW 12.7 mph 18.4 mph N/A   Clear
10:35 AM 64.4 °F - 22.6 °F 20% 30.07 in 10.0 mi South 12.7 mph 18.4 mph N/A   Clear
10:55 AM 65.1 °F - 22.3 °F 20% 30.07 in 10.0 mi SSW 11.5 mph - N/A   Clear
11:15 AM 66.4 °F - 24.1 °F 20% 30.07 in 10.0 mi South 8.1 mph - N/A   Clear
11:35 AM 67.1 °F - 24.3 °F 20% 30.07 in 10.0 mi South 6.9 mph - N/A   Clear
11:55 AM 68.2 °F - 25.0 °F 20% 30.07 in 10.0 mi South 6.9 mph 16.1 mph N/A   Clear
12:15 PM 69.1 °F - 24.8 °F 19% 30.05 in 10.0 mi SSW 9.2 mph 17.3 mph N/A   Clear
12:35 PM 69.4 °F - 25.0 °F 19% 30.03 in 10.0 mi SSW 11.5 mph 16.1 mph N/A   Clear
12:55 PM 70.2 °F - 25.9 °F 19% 30.02 in 10.0 mi SSW 8.1 mph - N/A   Clear
1:15 PM 70.3 °F - 25.5 °F 19% 30.02 in 10.0 mi SSW 9.2 mph - N/A   Clear
1:35 PM 71.2 °F - 26.8 °F 19% 30.01 in 10.0 mi South 8.1 mph - N/A   Clear
1:55 PM 72.7 °F - 28.8 °F 20% 29.99 in 10.0 mi South 9.2 mph - N/A   Clear
2:15 PM 73.2 °F - 28.2 °F 19% 29.98 in 10.0 mi SSW 9.2 mph - N/A   Clear
2:35 PM 73.9 °F - 28.9 °F 19% 29.97 in 10.0 mi South 10.4 mph - N/A   Clear
2:55 PM 74.5 °F - 29.7 °F 19% 29.96 in 10.0 mi SSE 9.2 mph - N/A   Clear
3:15 PM 75.2 °F - 30.6 °F 19% 29.95 in 10.0 mi SSE 8.1 mph - N/A   Clear
3:35 PM 75.0 °F - 29.1 °F 18% 29.94 in 10.0 mi SW 6.9 mph - N/A   Clear
3:55 PM 75.6 °F - 29.7 °F 18% 29.93 in 10.0 mi SSW 8.1 mph - N/A   Clear
4:15 PM 75.9 °F - 30.0 °F 19% 29.91 in 7.0 mi SSW 10.4 mph - N/A   Clear
4:35 PM 76.1 °F - 31.3 °F 19% 29.90 in 7.0 mi SSW 10.4 mph - N/A   Clear
4:55 PM 75.7 °F - 31.3 °F 20% 29.89 in 7.0 mi South 12.7 mph - N/A   Clear
5:15 PM 75.7 °F - 31.3 °F 20% 29.89 in 5.0 mi South 11.5 mph 17.3 mph N/A   Haze
5:35 PM 75.6 °F - 31.1 °F 20% 29.88 in 5.0 mi South 11.5 mph - N/A   Haze
5:55 PM 75.2 °F - 31.1 °F 20% 29.87 in 5.0 mi South 12.7 mph 21.9 mph N/A   Haze
6:15 PM 74.5 °F - 30.7 °F 20% 29.87 in 5.0 mi South 12.7 mph 19.6 mph N/A   Haze
6:35 PM 73.6 °F - 31.3 °F 21% 29.87 in 5.0 mi South 12.7 mph - N/A   Haze
6:55 PM 73.4 °F - 32.0 °F 22% 29.86 in 5.0 mi SSE 9.2 mph - N/A   Haze
7:15 PM 72.3 °F - 31.8 °F 22% 29.86 in 7.0 mi SSE 11.5 mph - N/A   Overcast
7:35 PM 71.1 °F - 32.0 °F 24% 29.85 in 7.0 mi SSE 9.2 mph - N/A   Overcast
7:55 PM 70.3 °F - 32.0 °F 24% 29.85 in 7.0 mi SSE 10.4 mph - N/A   Overcast
8:15 PM 69.4 °F - 32.5 °F 26% 29.85 in 10.0 mi SSE 12.7 mph 17.3 mph N/A   Overcast
8:35 PM 68.0 °F - 32.9 °F 27% 29.85 in 10.0 mi SSE 9.2 mph - N/A   Mostly Cloudy
8:55 PM 66.9 °F - 33.1 °F 28% 29.85 in 10.0 mi SSE 10.4 mph - N/A   Mostly Cloudy
9:15 PM 66.2 °F - 33.4 °F 30% 29.85 in 7.0 mi SE 9.2 mph - N/A   Scattered Clouds
9:35 PM 65.1 °F - 33.8 °F 31% 29.85 in 10.0 mi SE 9.2 mph - N/A   Clear
9:55 PM 63.9 °F - 34.0 °F 33% 29.86 in 10.0 mi SE 8.1 mph - N/A   Clear
10:15 PM 63.7 °F - 34.3 °F 34% 29.85 in 10.0 mi SE 9.2 mph - N/A   Clear
10:35 PM 63.0 °F - 34.7 °F 35% 29.85 in 10.0 mi SE 10.4 mph - N/A   Clear
10:55 PM 63.0 °F - 35.1 °F 35% 29.84 in 10.0 mi SE 9.2 mph - N/A   Clear
11:15 PM 62.6 °F - 35.8 °F 37% 29.84 in 10.0 mi SE 8.1 mph - N/A   Clear
11:35 PM 61.3 °F - 36.1 °F 39% 29.83 in 10.0 mi SSE 8.1 mph - N/A   Clear
11:55 PM 61.2 °F - 36.7 °F 40% 29.82 in 10.0 mi SSE 8.1 mph - N/A   Mostly Cloudy